Year,Month,Day,Hour,Minute,Value (Times are PST for temperature in C)
2013,03,21,00,00,-9.10
2013,03,21,00,01,-9.10
2013,03,21,00,02,-9.10
2013,03,21,00,03,-9.10
2013,03,21,00,04,-9.20
2013,03,21,00,05,-9.20
2013,03,21,00,06,-9.20
2013,03,21,00,07,-9.20
2013,03,21,00,08,-9.20
2013,03,21,00,09,-9.20
2013,03,21,00,10,-9.20
2013,03,21,00,11,-9.20
2013,03,21,00,12,-9.20
2013,03,21,00,13,-9.20
2013,03,21,00,14,-9.20
2013,03,21,00,15,-9.20
2013,03,21,00,16,-9.20
2013,03,21,00,17,-9.20
2013,03,21,00,18,-9.20
2013,03,21,00,19,-9.20
2013,03,21,00,20,-9.20
2013,03,21,00,21,-9.20
2013,03,21,00,22,-9.20
2013,03,21,00,23,-9.20
2013,03,21,00,24,-9.20
2013,03,21,00,25,-9.20
2013,03,21,00,26,-9.20
2013,03,21,00,27,-9.20
2013,03,21,00,28,-9.20
2013,03,21,00,29,-9.20
2013,03,21,00,30,-9.20
2013,03,21,00,31,-9.20
2013,03,21,00,32,-9.20
2013,03,21,00,33,-9.20
2013,03,21,00,34,-9.20
2013,03,21,00,35,-9.20
2013,03,21,00,36,-9.20
2013,03,21,00,37,-9.20
2013,03,21,00,38,-9.20
2013,03,21,00,39,-9.20
2013,03,21,00,40,-9.20
2013,03,21,00,41,-9.20
2013,03,21,00,42,-9.20
2013,03,21,00,43,-9.20
2013,03,21,00,44,-9.20
2013,03,21,00,45,-9.20
2013,03,21,00,46,-9.20
2013,03,21,00,47,-9.20
2013,03,21,00,48,-9.20
2013,03,21,00,49,-9.40
2013,03,21,00,50,-9.40
2013,03,21,00,51,-9.40
2013,03,21,00,52,-9.40
2013,03,21,00,53,-9.40
2013,03,21,00,54,-9.40
2013,03,21,00,55,-9.40
2013,03,21,00,56,-9.40
2013,03,21,00,57,-9.40
2013,03,21,00,58,-9.40
2013,03,21,00,59,-9.40
2013,03,21,01,00,-9.40
2013,03,21,01,01,-9.40
2013,03,21,01,02,-9.40
2013,03,21,01,03,-9.40
2013,03,21,01,04,-9.10
2013,03,21,01,05,-9.10
2013,03,21,01,06,-9.10
2013,03,21,01,07,-9.10
2013,03,21,01,08,-9.10
2013,03,21,01,09,-9.10
2013,03,21,01,10,-9.10
2013,03,21,01,11,-9.10
2013,03,21,01,12,-9.10
2013,03,21,01,13,-9.10
2013,03,21,01,14,-9.10
2013,03,21,01,15,-9.10
2013,03,21,01,16,-9.10
2013,03,21,01,17,-9.10
2013,03,21,01,18,-9.10
2013,03,21,01,19,-9.20
2013,03,21,01,20,-9.20
2013,03,21,01,21,-9.20
2013,03,21,01,22,-9.20
2013,03,21,01,23,-9.20
2013,03,21,01,24,-9.20
2013,03,21,01,25,-9.20
2013,03,21,01,26,-9.20
2013,03,21,01,27,-9.20
2013,03,21,01,28,-9.20
2013,03,21,01,29,-9.20
2013,03,21,01,30,-9.20
2013,03,21,01,31,-9.20
2013,03,21,01,32,-9.20
2013,03,21,01,33,-9.20
2013,03,21,01,34,-9.30
2013,03,21,01,35,-9.30
2013,03,21,01,36,-9.30
2013,03,21,01,37,-9.30
2013,03,21,01,38,-9.30
2013,03,21,01,39,-9.30
2013,03,21,01,40,-9.30
2013,03,21,01,41,-9.30
2013,03,21,01,42,-9.30
2013,03,21,01,43,-9.30
2013,03,21,01,44,-9.30
2013,03,21,01,45,-9.30
2013,03,21,01,46,-9.30
2013,03,21,01,47,-9.30
2013,03,21,01,48,-9.30
2013,03,21,01,49,-9.30
2013,03,21,01,50,-9.30
2013,03,21,01,51,-9.30
2013,03,21,01,52,-9.30
2013,03,21,01,53,-9.30
2013,03,21,01,54,-9.30
2013,03,21,01,55,-9.30
2013,03,21,01,56,-9.30
2013,03,21,01,57,-9.30
2013,03,21,01,58,-9.30
2013,03,21,01,59,-9.30
2013,03,21,02,00,-9.30
2013,03,21,02,01,-9.30
2013,03,21,02,02,-9.30
2013,03,21,02,03,-9.30
2013,03,21,02,04,-9.50
2013,03,21,02,05,-9.50
2013,03,21,02,06,-9.50
2013,03,21,02,07,-9.50
2013,03,21,02,08,-9.50
2013,03,21,02,09,-9.50
2013,03,21,02,10,-9.50
2013,03,21,02,11,-9.50
2013,03,21,02,12,-9.50
2013,03,21,02,13,-9.50
2013,03,21,02,14,-9.50
2013,03,21,02,15,-9.50
2013,03,21,02,16,-9.50
2013,03,21,02,17,-9.50
2013,03,21,02,18,-9.50
2013,03,21,02,19,-9.60
2013,03,21,02,20,-9.60
2013,03,21,02,21,-9.60
2013,03,21,02,22,-9.60
2013,03,21,02,23,-9.60
2013,03,21,02,24,-9.60
2013,03,21,02,25,-9.60
2013,03,21,02,26,-9.60
2013,03,21,02,27,-9.60
2013,03,21,02,28,-9.60
2013,03,21,02,29,-9.60
2013,03,21,02,30,-9.60
2013,03,21,02,31,-9.60
2013,03,21,02,32,-9.60
2013,03,21,02,33,-9.60
2013,03,21,02,34,-9.60
2013,03,21,02,35,-9.60
2013,03,21,02,36,-9.60
2013,03,21,02,37,-9.60
2013,03,21,02,38,-9.60
2013,03,21,02,39,-9.60
2013,03,21,02,40,-9.60
2013,03,21,02,41,-9.60
2013,03,21,02,42,-9.60
2013,03,21,02,43,-9.60
2013,03,21,02,44,-9.60
2013,03,21,02,45,-9.60
2013,03,21,02,46,-9.60
2013,03,21,02,47,-9.60
2013,03,21,02,48,-9.60
2013,03,21,02,49,-9.40
2013,03,21,02,50,-9.40
2013,03,21,02,51,-9.40
2013,03,21,02,52,-9.40
2013,03,21,02,53,-9.40
2013,03,21,02,54,-9.40
2013,03,21,02,55,-9.40
2013,03,21,02,56,-9.40
2013,03,21,02,57,-9.40
2013,03,21,02,58,-9.40
2013,03,21,02,59,-9.40
2013,03,21,03,00,-9.40
2013,03,21,03,01,-9.40
2013,03,21,03,02,-9.40
2013,03,21,03,03,-9.40
2013,03,21,03,04,-9.40
2013,03,21,03,05,-9.40
2013,03,21,03,06,-9.40
2013,03,21,03,07,-9.40
2013,03,21,03,08,-9.40
2013,03,21,03,09,-9.40
2013,03,21,03,10,-9.40
2013,03,21,03,11,-9.40
2013,03,21,03,12,-9.40
2013,03,21,03,13,-9.40
2013,03,21,03,14,-9.40
2013,03,21,03,15,-9.40
2013,03,21,03,16,-9.40
2013,03,21,03,17,-9.40
2013,03,21,03,18,-9.40
2013,03,21,03,19,-9.70
2013,03,21,03,20,-9.70
2013,03,21,03,21,-9.70
2013,03,21,03,22,-9.70
2013,03,21,03,23,-9.70
2013,03,21,03,24,-9.70
2013,03,21,03,25,-9.70
2013,03,21,03,26,-9.70
2013,03,21,03,27,-9.70
2013,03,21,03,28,-9.70
2013,03,21,03,29,-9.70
2013,03,21,03,30,-9.70
2013,03,21,03,31,-9.70
2013,03,21,03,32,-9.70
2013,03,21,03,33,-9.70
2013,03,21,03,34,-9.30
2013,03,21,03,35,-9.30
2013,03,21,03,36,-9.30
2013,03,21,03,37,-9.30
2013,03,21,03,38,-9.30
2013,03,21,03,39,-9.30
2013,03,21,03,40,-9.30
2013,03,21,03,41,-9.30
2013,03,21,03,42,-9.30
2013,03,21,03,43,-9.30
2013,03,21,03,44,-9.30
2013,03,21,03,45,-9.30
2013,03,21,03,46,-9.30
2013,03,21,03,47,-9.30
2013,03,21,03,48,-9.30
2013,03,21,03,49,-9.30
2013,03,21,03,50,-9.30
2013,03,21,03,51,-9.30
2013,03,21,03,52,-9.30
2013,03,21,03,53,-9.30
2013,03,21,03,54,-9.30
2013,03,21,03,55,-9.30
2013,03,21,03,56,-9.30
2013,03,21,03,57,-9.30
2013,03,21,03,58,-9.30
2013,03,21,03,59,-9.30
2013,03,21,04,00,-9.30
2013,03,21,04,01,-9.30
2013,03,21,04,02,-9.30
2013,03,21,04,03,-9.30
2013,03,21,04,04,-9.30
2013,03,21,04,05,-9.30
2013,03,21,04,06,-9.30
2013,03,21,04,07,-9.30
2013,03,21,04,08,-9.30
2013,03,21,04,09,-9.30
2013,03,21,04,10,-9.30
2013,03,21,04,11,-9.30
2013,03,21,04,12,-9.30
2013,03,21,04,13,-9.30
2013,03,21,04,14,-9.30
2013,03,21,04,15,-9.30
2013,03,21,04,16,-9.30
2013,03,21,04,17,-9.30
2013,03,21,04,18,-9.30
2013,03,21,04,19,-9.40
2013,03,21,04,20,-9.40
2013,03,21,04,21,-9.40
2013,03,21,04,22,-9.40
2013,03,21,04,23,-9.40
2013,03,21,04,24,-9.40
2013,03,21,04,25,-9.40
2013,03,21,04,26,-9.40
2013,03,21,04,27,-9.40
2013,03,21,04,28,-9.40
2013,03,21,04,29,-9.40
2013,03,21,04,30,-9.40
2013,03,21,04,31,-9.40
2013,03,21,04,32,-9.40
2013,03,21,04,33,-9.40
2013,03,21,04,34,-9.40
2013,03,21,04,35,-9.40
2013,03,21,04,36,-9.40
2013,03,21,04,37,-9.40
2013,03,21,04,38,-9.40
2013,03,21,04,39,-9.40
2013,03,21,04,40,-9.40
2013,03,21,04,41,-9.40
2013,03,21,04,42,-9.40
2013,03,21,04,43,-9.40
2013,03,21,04,44,-9.40
2013,03,21,04,45,-9.40
2013,03,21,04,46,-9.40
2013,03,21,04,47,-9.40
2013,03,21,04,48,-9.40
2013,03,21,04,49,-9.10
2013,03,21,04,50,-9.10
2013,03,21,04,51,-9.10
2013,03,21,04,52,-9.10
2013,03,21,04,53,-9.10
2013,03,21,04,54,-9.10
2013,03,21,04,55,-9.10
2013,03,21,04,56,-9.10
2013,03,21,04,57,-9.10
2013,03,21,04,58,-9.10
2013,03,21,04,59,-9.10
2013,03,21,05,00,-9.10
2013,03,21,05,01,-9.10
2013,03,21,05,02,-9.10
2013,03,21,05,03,-9.10
2013,03,21,05,04,-9.00
2013,03,21,05,05,-9.00
2013,03,21,05,06,-9.00
2013,03,21,05,07,-9.00
2013,03,21,05,08,-9.00
2013,03,21,05,09,-9.00
2013,03,21,05,10,-9.00
2013,03,21,05,11,-9.00
2013,03,21,05,12,-9.00
2013,03,21,05,13,-9.00
2013,03,21,05,14,-9.00
2013,03,21,05,15,-9.00
2013,03,21,05,16,-9.00
2013,03,21,05,17,-9.00
2013,03,21,05,18,-9.00
2013,03,21,05,19,-9.10
2013,03,21,05,20,-9.10
2013,03,21,05,21,-9.10
2013,03,21,05,22,-9.10
2013,03,21,05,23,-9.10
2013,03,21,05,24,-9.10
2013,03,21,05,25,-9.10
2013,03,21,05,26,-9.10
2013,03,21,05,27,-9.10
2013,03,21,05,28,-9.10
2013,03,21,05,29,-9.10
2013,03,21,05,30,-9.10
2013,03,21,05,31,-9.10
2013,03,21,05,32,-9.10
2013,03,21,05,33,-9.10
2013,03,21,05,34,-9.00
2013,03,21,05,35,-9.00
2013,03,21,05,36,-9.00
2013,03,21,05,37,-9.00
2013,03,21,05,38,-9.00
2013,03,21,05,39,-9.00
2013,03,21,05,40,-9.00
2013,03,21,05,41,-9.00
2013,03,21,05,42,-9.00
2013,03,21,05,43,-9.00
2013,03,21,05,44,-9.00
2013,03,21,05,45,-9.00
2013,03,21,05,46,-9.00
2013,03,21,05,47,-9.00
2013,03,21,05,48,-9.00
2013,03,21,05,49,-8.90
2013,03,21,05,50,-8.90
2013,03,21,05,51,-8.90
2013,03,21,05,52,-8.90
2013,03,21,05,53,-8.90
2013,03,21,05,54,-8.90
2013,03,21,05,55,-8.90
2013,03,21,05,56,-8.90
2013,03,21,05,57,-8.90
2013,03,21,05,58,-8.90
2013,03,21,05,59,-8.90
2013,03,21,06,00,-8.90
2013,03,21,06,01,-8.90
2013,03,21,06,02,-8.90
2013,03,21,06,03,-8.90
2013,03,21,06,04,-8.90
2013,03,21,06,05,-8.90
2013,03,21,06,06,-8.90
2013,03,21,06,07,-8.90
2013,03,21,06,08,-8.90
2013,03,21,06,09,-8.90
2013,03,21,06,10,-8.90
2013,03,21,06,11,-8.90
2013,03,21,06,12,-8.90
2013,03,21,06,13,-8.90
2013,03,21,06,14,-8.90
2013,03,21,06,15,-8.90
2013,03,21,06,16,-8.90
2013,03,21,06,17,-8.90
2013,03,21,06,18,-8.90
2013,03,21,06,19,-8.90
2013,03,21,06,20,-8.90
2013,03,21,06,21,-8.90
2013,03,21,06,22,-8.90
2013,03,21,06,23,-8.90
2013,03,21,06,24,-8.90
2013,03,21,06,25,-8.90
2013,03,21,06,26,-8.90
2013,03,21,06,27,-8.90
2013,03,21,06,28,-8.90
2013,03,21,06,29,-8.90
2013,03,21,06,30,-8.90
2013,03,21,06,31,-8.90
2013,03,21,06,32,-8.90
2013,03,21,06,33,-8.90
2013,03,21,06,34,-8.80
2013,03,21,06,35,-8.80
2013,03,21,06,36,-8.80
2013,03,21,06,37,-8.80
2013,03,21,06,38,-8.80
2013,03,21,06,39,-8.80
2013,03,21,06,40,-8.80
2013,03,21,06,41,-8.80
2013,03,21,06,42,-8.80
2013,03,21,06,43,-8.80
2013,03,21,06,44,-8.80
2013,03,21,06,45,-8.80
2013,03,21,06,46,-8.80
2013,03,21,06,47,-8.80
2013,03,21,06,48,-8.80
2013,03,21,06,49,-8.80
2013,03,21,06,50,-8.80
2013,03,21,06,51,-8.80
2013,03,21,06,52,-8.80
2013,03,21,06,53,-8.80
2013,03,21,06,54,-8.80
2013,03,21,06,55,-8.80
2013,03,21,06,56,-8.80
2013,03,21,06,57,-8.80
2013,03,21,06,58,-8.80
2013,03,21,06,59,-8.80
2013,03,21,07,00,-8.80
2013,03,21,07,01,-8.80
2013,03,21,07,02,-8.80
2013,03,21,07,03,-8.80
2013,03,21,07,04,-8.90
2013,03,21,07,05,-8.90
2013,03,21,07,06,-8.90
2013,03,21,07,07,-8.90
2013,03,21,07,08,-8.90
2013,03,21,07,09,-8.90
2013,03,21,07,10,-8.90
2013,03,21,07,11,-8.90
2013,03,21,07,12,-8.90
2013,03,21,07,13,-8.90
2013,03,21,07,14,-8.90
2013,03,21,07,15,-8.90
2013,03,21,07,16,-8.90
2013,03,21,07,17,-8.90
2013,03,21,07,18,-8.90
2013,03,21,07,19,-9.10
2013,03,21,07,20,-9.10
2013,03,21,07,21,-9.10
2013,03,21,07,22,-9.10
2013,03,21,07,23,-9.10
2013,03,21,07,24,-9.10
2013,03,21,07,25,-9.10
2013,03,21,07,26,-9.10
2013,03,21,07,27,-9.10
2013,03,21,07,28,-9.10
2013,03,21,07,29,-9.10
2013,03,21,07,30,-9.10
2013,03,21,07,31,-9.10
2013,03,21,07,32,-9.10
2013,03,21,07,33,-9.10
2013,03,21,07,34,-9.00
2013,03,21,07,35,-9.00
2013,03,21,07,36,-9.00
2013,03,21,07,37,-9.00
2013,03,21,07,38,-9.00
2013,03,21,07,39,-9.00
2013,03,21,07,40,-9.00
2013,03,21,07,41,-9.00
2013,03,21,07,42,-9.00
2013,03,21,07,43,-9.00
2013,03,21,07,44,-9.00
2013,03,21,07,45,-9.00
2013,03,21,07,46,-9.00
2013,03,21,07,47,-9.00
2013,03,21,07,48,-9.00
2013,03,21,07,49,-9.00
2013,03,21,07,50,-9.00
2013,03,21,07,51,-9.00
2013,03,21,07,52,-9.00
2013,03,21,07,53,-9.00
2013,03,21,07,54,-9.00
2013,03,21,07,55,-9.00
2013,03,21,07,56,-9.00
2013,03,21,07,57,-9.00
2013,03,21,07,58,-9.00
2013,03,21,07,59,-9.00
2013,03,21,08,00,-9.00
2013,03,21,08,01,-9.00
2013,03,21,08,02,-9.00
2013,03,21,08,03,-9.00
2013,03,21,08,04,-8.80
2013,03,21,08,05,-8.80
2013,03,21,08,06,-8.80
2013,03,21,08,07,-8.80
2013,03,21,08,08,-8.80
2013,03,21,08,09,-8.80
2013,03,21,08,10,-8.80
2013,03,21,08,11,-8.80
2013,03,21,08,12,-8.80
2013,03,21,08,13,-8.80
2013,03,21,08,14,-8.80
2013,03,21,08,15,-8.80
2013,03,21,08,16,-8.80
2013,03,21,08,17,-8.80
2013,03,21,08,18,-8.80
2013,03,21,08,19,-8.60
2013,03,21,08,20,-8.60
2013,03,21,08,21,-8.60
2013,03,21,08,22,-8.60
2013,03,21,08,23,-8.60
2013,03,21,08,24,-8.60
2013,03,21,08,26,-8.60
2013,03,21,08,27,-8.60
2013,03,21,08,28,-8.60
2013,03,21,08,29,-8.60
2013,03,21,08,30,-8.60
2013,03,21,08,31,-8.60
2013,03,21,08,32,-8.60
2013,03,21,08,33,-8.60
2013,03,21,08,34,-8.40
2013,03,21,08,35,-8.40
2013,03,21,08,36,-8.40
2013,03,21,08,37,-8.40
2013,03,21,08,38,-8.40
2013,03,21,08,39,-8.40
2013,03,21,08,40,-8.40
2013,03,21,08,41,-8.40
2013,03,21,08,42,-8.40
2013,03,21,08,43,-8.40
2013,03,21,08,44,-8.40
2013,03,21,08,45,-8.40
2013,03,21,08,46,-8.40
2013,03,21,08,47,-8.40
2013,03,21,08,48,-8.40
2013,03,21,08,49,-8.30
2013,03,21,08,50,-8.30
2013,03,21,08,51,-8.30
2013,03,21,08,52,-8.30
2013,03,21,08,53,-8.30
2013,03,21,08,54,-8.30
2013,03,21,08,55,-8.30
2013,03,21,08,56,-8.30
2013,03,21,08,57,-8.30
2013,03,21,08,58,-8.30
2013,03,21,08,59,-8.30
2013,03,21,09,00,-8.30
2013,03,21,09,01,-8.30
2013,03,21,09,02,-8.30
2013,03,21,09,03,-8.30
2013,03,21,09,04,-8.20
2013,03,21,09,05,-8.20
2013,03,21,09,06,-8.20
2013,03,21,09,07,-8.20
2013,03,21,09,08,-8.20
2013,03,21,09,09,-8.20
2013,03,21,09,10,-8.20
2013,03,21,09,11,-8.20
2013,03,21,09,12,-8.20
2013,03,21,09,13,-8.20
2013,03,21,09,14,-8.20
2013,03,21,09,15,-8.20
2013,03,21,09,16,-8.20
2013,03,21,09,17,-8.20
2013,03,21,09,18,-8.20
2013,03,21,09,19,-7.90
2013,03,21,09,20,-7.90
2013,03,21,09,21,-7.90
2013,03,21,09,22,-7.90
2013,03,21,09,23,-7.90
2013,03,21,09,24,-7.90
2013,03,21,09,25,-7.90
2013,03,21,09,26,-7.90
2013,03,21,09,27,-7.90
2013,03,21,09,28,-7.90
2013,03,21,09,29,-7.90
2013,03,21,09,30,-7.90
2013,03,21,09,31,-7.90
2013,03,21,09,32,-7.90
2013,03,21,09,33,-7.90
2013,03,21,09,34,-7.20
2013,03,21,09,35,-7.20
2013,03,21,09,36,-7.20
2013,03,21,09,37,-7.20
2013,03,21,09,38,-7.20
2013,03,21,09,39,-7.20
2013,03,21,09,40,-7.20
2013,03,21,09,41,-7.20
2013,03,21,09,42,-7.20
2013,03,21,09,43,-7.20
2013,03,21,09,44,-7.20
2013,03,21,09,45,-7.20
2013,03,21,09,46,-7.20
2013,03,21,09,47,-7.20
2013,03,21,09,48,-7.20
2013,03,21,09,49,-6.70
2013,03,21,09,50,-6.70
2013,03,21,09,51,-6.70
2013,03,21,09,52,-6.70
2013,03,21,09,53,-6.70
2013,03,21,09,54,-6.70
2013,03,21,09,55,-6.70
2013,03,21,09,56,-6.70
2013,03,21,09,57,-6.70
2013,03,21,09,58,-6.70
2013,03,21,09,59,-6.70
2013,03,21,10,00,-6.70
2013,03,21,10,01,-6.70
2013,03,21,10,02,-6.70
2013,03,21,10,03,-6.70
2013,03,21,10,04,-6.20
2013,03,21,10,05,-6.20
2013,03,21,10,06,-6.20
2013,03,21,10,07,-6.20
2013,03,21,10,08,-6.20
2013,03,21,10,09,-6.20
2013,03,21,10,10,-6.20
2013,03,21,10,11,-6.20
2013,03,21,10,12,-6.20
2013,03,21,10,13,-6.20
2013,03,21,10,14,-6.20
2013,03,21,10,15,-6.20
2013,03,21,10,16,-6.20
2013,03,21,10,17,-6.20
2013,03,21,10,18,-6.20
2013,03,21,10,19,-5.90
2013,03,21,10,20,-5.90
2013,03,21,10,21,-5.90
2013,03,21,10,22,-5.90
2013,03,21,10,23,-5.90
2013,03,21,10,24,-5.90
2013,03,21,10,25,-5.90
2013,03,21,10,26,-5.90
2013,03,21,10,27,-5.90
2013,03,21,10,28,-5.90
2013,03,21,10,29,-5.90
2013,03,21,10,30,-5.90
2013,03,21,10,31,-5.90
2013,03,21,10,32,-5.90
2013,03,21,10,33,-5.90
2013,03,21,10,34,-5.40
2013,03,21,10,35,-5.40
2013,03,21,10,36,-5.40
2013,03,21,10,37,-5.40
2013,03,21,10,38,-5.40
2013,03,21,10,39,-5.40
2013,03,21,10,40,-5.40
2013,03,21,10,41,-5.40
2013,03,21,10,42,-5.40
2013,03,21,10,43,-5.40
2013,03,21,10,44,-5.40
2013,03,21,10,45,-5.40
2013,03,21,10,46,-5.40
2013,03,21,10,47,-5.40
2013,03,21,10,48,-5.40
2013,03,21,10,49,-5.50
2013,03,21,10,50,-5.50
2013,03,21,10,51,-5.50
2013,03,21,10,52,-5.50
2013,03,21,10,53,-5.50
2013,03,21,10,54,-5.50
2013,03,21,10,55,-5.50
2013,03,21,10,56,-5.50
2013,03,21,10,57,-5.50
2013,03,21,10,58,-5.50
2013,03,21,10,59,-5.50
2013,03,21,11,00,-5.50
2013,03,21,11,01,-5.50
2013,03,21,11,02,-5.50
2013,03,21,11,03,-5.50
2013,03,21,11,04,-4.90
2013,03,21,11,05,-4.90
2013,03,21,11,06,-4.90
2013,03,21,11,07,-4.90
2013,03,21,11,08,-4.90
2013,03,21,11,09,-4.90
2013,03,21,11,10,-4.90
2013,03,21,11,11,-4.90
2013,03,21,11,12,-4.90
2013,03,21,11,13,-4.90
2013,03,21,11,14,-4.90
2013,03,21,11,15,-4.90
2013,03,21,11,16,-4.90
2013,03,21,11,17,-4.90
2013,03,21,11,18,-4.90
2013,03,21,11,19,-3.70
2013,03,21,11,20,-3.70
2013,03,21,11,21,-3.70
2013,03,21,11,22,-3.70
2013,03,21,11,23,-3.70
2013,03,21,11,24,-3.70
2013,03,21,11,25,-3.70
2013,03,21,11,26,-3.70
2013,03,21,11,27,-3.70
2013,03,21,11,28,-3.70
2013,03,21,11,29,-3.70
2013,03,21,11,30,-3.70
2013,03,21,11,31,-3.70
2013,03,21,11,32,-3.70
2013,03,21,11,33,-3.70
2013,03,21,11,34,-4.00
2013,03,21,11,35,-4.00
2013,03,21,11,36,-4.00
2013,03,21,11,37,-4.00
2013,03,21,11,38,-4.00
2013,03,21,11,39,-4.00
2013,03,21,11,40,-4.00
2013,03,21,11,41,-4.00
2013,03,21,11,42,-4.00
2013,03,21,11,43,-4.00
2013,03,21,11,44,-4.00
2013,03,21,11,45,-4.00
2013,03,21,11,46,-4.00
2013,03,21,11,47,-4.00
2013,03,21,11,48,-4.00
2013,03,21,11,49,-3.70
2013,03,21,11,50,-3.70
2013,03,21,11,51,-3.70
2013,03,21,11,52,-3.70
2013,03,21,11,53,-3.70
2013,03,21,11,54,-3.70
2013,03,21,11,55,-3.70
2013,03,21,11,56,-3.70
2013,03,21,11,57,-3.70
2013,03,21,11,58,-3.70
2013,03,21,11,59,-3.70
2013,03,21,12,00,-3.70
2013,03,21,12,01,-3.70
2013,03,21,12,02,-3.70
2013,03,21,12,03,-3.70
2013,03,21,12,04,-3.70
2013,03,21,12,05,-3.70
2013,03,21,12,06,-3.70
2013,03,21,12,07,-3.70
2013,03,21,12,08,-3.70
2013,03,21,12,09,-3.70
2013,03,21,12,10,-3.70
2013,03,21,12,11,-3.70
2013,03,21,12,12,-3.70
2013,03,21,12,13,-3.70
2013,03,21,12,14,-3.70
2013,03,21,12,15,-3.70
2013,03,21,12,16,-3.70
2013,03,21,12,17,-3.70
2013,03,21,12,18,-3.70
2013,03,21,12,19,-3.30
2013,03,21,12,20,-3.30
2013,03,21,12,21,-3.30
2013,03,21,12,22,-3.30
2013,03,21,12,23,-3.30
2013,03,21,12,24,-3.30
2013,03,21,12,25,-3.30
2013,03,21,12,26,-3.30
2013,03,21,12,27,-3.30
2013,03,21,12,28,-3.30
2013,03,21,12,29,-3.30
2013,03,21,12,30,-3.30
2013,03,21,12,31,-3.30
2013,03,21,12,32,-3.30
2013,03,21,12,33,-3.30
2013,03,21,12,34,-3.00
2013,03,21,12,35,-3.00
2013,03,21,12,36,-3.00
2013,03,21,12,37,-3.00
2013,03,21,12,38,-3.00
2013,03,21,12,39,-3.00
2013,03,21,12,40,-3.00
2013,03,21,12,41,-3.00
2013,03,21,12,42,-3.00
2013,03,21,12,43,-3.00
2013,03,21,12,44,-3.00
2013,03,21,12,45,-3.00
2013,03,21,12,46,-3.00
2013,03,21,12,47,-3.00
2013,03,21,12,48,-3.00
2013,03,21,12,49,-2.20
2013,03,21,12,50,-2.20
2013,03,21,12,51,-2.20
2013,03,21,12,52,-2.20
2013,03,21,12,53,-2.20
2013,03,21,12,54,-2.20
2013,03,21,12,55,-2.20
2013,03,21,12,56,-2.20
2013,03,21,12,57,-2.20
2013,03,21,12,58,-2.20
2013,03,21,12,59,-2.20
2013,03,21,13,00,-2.20
2013,03,21,13,01,-2.20
2013,03,21,13,02,-2.20
2013,03,21,13,03,-2.20
2013,03,21,13,04,-2.60
2013,03,21,13,05,-2.60
2013,03,21,13,06,-2.60
2013,03,21,13,07,-2.60
2013,03,21,13,08,-2.60
2013,03,21,13,09,-2.60
2013,03,21,13,10,-2.60
2013,03,21,13,11,-2.60
2013,03,21,13,12,-2.60
2013,03,21,13,13,-2.60
2013,03,21,13,14,-2.60
2013,03,21,13,15,-2.60
2013,03,21,13,16,-2.60
2013,03,21,13,17,-2.60
2013,03,21,13,18,-2.60
2013,03,21,13,19,-1.80
2013,03,21,13,20,-1.80
2013,03,21,13,21,-1.80
2013,03,21,13,22,-1.80
2013,03,21,13,23,-1.80
2013,03,21,13,24,-1.80
2013,03,21,13,25,-1.80
2013,03,21,13,26,-1.80
2013,03,21,13,27,-1.80
2013,03,21,13,28,-1.80
2013,03,21,13,29,-1.80
2013,03,21,13,30,-1.80
2013,03,21,13,31,-1.80
2013,03,21,13,32,-1.80
2013,03,21,13,33,-1.80
2013,03,21,13,34,-1.80
2013,03,21,13,35,-1.80
2013,03,21,13,36,-1.80
2013,03,21,13,37,-1.80
2013,03,21,13,38,-1.80
2013,03,21,13,39,-1.80
2013,03,21,13,40,-1.80
2013,03,21,13,41,-1.80
2013,03,21,13,42,-1.80
2013,03,21,13,43,-1.80
2013,03,21,13,44,-1.80
2013,03,21,13,45,-1.80
2013,03,21,13,46,-1.80
2013,03,21,13,47,-1.80
2013,03,21,13,48,-1.80
2013,03,21,13,49,-2.40
2013,03,21,13,50,-2.40
2013,03,21,13,51,-2.40
2013,03,21,13,52,-2.40
2013,03,21,13,53,-2.40
2013,03,21,13,54,-2.40
2013,03,21,13,55,-2.40
2013,03,21,13,56,-2.40
2013,03,21,13,57,-2.40
2013,03,21,13,58,-2.40
2013,03,21,13,59,-2.40
2013,03,21,14,00,-2.40
2013,03,21,14,01,-2.40
2013,03,21,14,02,-2.40
2013,03,21,14,03,-2.40
2013,03,21,14,04,-1.40
2013,03,21,14,05,-1.40
2013,03,21,14,06,-1.40
2013,03,21,14,07,-1.40
2013,03,21,14,08,-1.40
2013,03,21,14,09,-1.40
2013,03,21,14,10,-1.40
2013,03,21,14,11,-1.40
2013,03,21,14,12,-1.40
2013,03,21,14,13,-1.40
2013,03,21,14,14,-1.40
2013,03,21,14,15,-1.40
2013,03,21,14,16,-1.40
2013,03,21,14,17,-1.40
2013,03,21,14,18,-1.40
2013,03,21,14,19,-1.10
2013,03,21,14,20,-1.10
2013,03,21,14,21,-1.10
2013,03,21,14,22,-1.10
2013,03,21,14,23,-1.10
2013,03,21,14,24,-1.10
2013,03,21,14,25,-1.10
2013,03,21,14,26,-1.10
2013,03,21,14,27,-1.10
2013,03,21,14,28,-1.10
2013,03,21,14,29,-1.10
2013,03,21,14,30,-1.10
2013,03,21,14,31,-1.10
2013,03,21,14,32,-1.10
2013,03,21,14,33,-1.10
2013,03,21,14,34,-2.90
2013,03,21,14,35,-2.90
2013,03,21,14,36,-2.90
2013,03,21,14,37,-2.90
2013,03,21,14,38,-2.90
2013,03,21,14,39,-2.90
2013,03,21,14,40,-2.90
2013,03,21,14,41,-2.90
2013,03,21,14,42,-2.90
2013,03,21,14,43,-2.90
2013,03,21,14,44,-2.90
2013,03,21,14,45,-2.90
2013,03,21,14,46,-2.90
2013,03,21,14,47,-2.90
2013,03,21,14,48,-2.90
2013,03,21,14,49,-3.90
2013,03,21,14,50,-3.90
2013,03,21,14,51,-3.90
2013,03,21,14,52,-3.90
2013,03,21,14,53,-3.90
2013,03,21,14,54,-3.90
2013,03,21,14,55,-3.90
2013,03,21,14,56,-3.90
2013,03,21,14,57,-3.90
2013,03,21,14,58,-3.90
2013,03,21,14,59,-3.90
2013,03,21,15,00,-3.90
2013,03,21,15,01,-3.90
2013,03,21,15,02,-3.90
2013,03,21,15,03,-3.90
2013,03,21,15,04,-4.80
2013,03,21,15,05,-4.80
2013,03,21,15,06,-4.80
2013,03,21,15,07,-4.80
2013,03,21,15,08,-4.80
2013,03,21,15,09,-4.80
2013,03,21,15,10,-4.80
2013,03,21,15,11,-4.80
2013,03,21,15,12,-4.80
2013,03,21,15,13,-4.80
2013,03,21,15,14,-4.80
2013,03,21,15,15,-4.80
2013,03,21,15,16,-4.80
2013,03,21,15,17,-4.80
2013,03,21,15,18,-4.80
2013,03,21,15,19,-3.10
2013,03,21,15,20,-3.10
2013,03,21,15,21,-3.10
2013,03,21,15,22,-3.10
2013,03,21,15,23,-3.10
2013,03,21,15,24,-3.10
2013,03,21,15,25,-3.10
2013,03,21,15,26,-3.10
2013,03,21,15,27,-3.10
2013,03,21,15,28,-3.10
2013,03,21,15,29,-3.10
2013,03,21,15,30,-3.10
2013,03,21,15,31,-3.10
2013,03,21,15,32,-3.10
2013,03,21,15,33,-3.10
2013,03,21,15,34,-3.00
2013,03,21,15,35,-3.00
2013,03,21,15,36,-3.00
2013,03,21,15,37,-3.00
2013,03,21,15,38,-3.00
2013,03,21,15,39,-3.00
2013,03,21,15,40,-3.00
2013,03,21,15,41,-3.00
2013,03,21,15,42,-3.00
2013,03,21,15,43,-3.00
2013,03,21,15,44,-3.00
2013,03,21,15,45,-3.00
2013,03,21,15,46,-3.00
2013,03,21,15,47,-3.00
2013,03,21,15,48,-3.00
2013,03,21,15,49,-5.10
2013,03,21,15,50,-5.10
2013,03,21,15,51,-5.10
2013,03,21,15,52,-5.10
2013,03,21,15,53,-5.10
2013,03,21,15,54,-5.10
2013,03,21,15,55,-5.10
2013,03,21,15,56,-5.10
2013,03,21,15,57,-5.10
2013,03,21,15,58,-5.10
2013,03,21,15,59,-5.10
2013,03,21,16,00,-5.10
2013,03,21,16,01,-5.10
2013,03,21,16,02,-5.10
2013,03,21,16,03,-5.10
2013,03,21,16,04,-4.90
2013,03,21,16,05,-4.90
2013,03,21,16,06,-4.90
2013,03,21,16,07,-4.90
2013,03,21,16,08,-4.90
2013,03,21,16,09,-4.90
2013,03,21,16,10,-4.90
2013,03,21,16,11,-4.90
2013,03,21,16,12,-4.90
2013,03,21,16,13,-4.90
2013,03,21,16,14,-4.90
2013,03,21,16,15,-4.90
2013,03,21,16,16,-4.90
2013,03,21,16,17,-4.90
2013,03,21,16,18,-4.90
2013,03,21,16,19,-6.00
2013,03,21,16,20,-6.00
2013,03,21,16,21,-6.00
2013,03,21,16,22,-6.00
2013,03,21,16,23,-6.00
2013,03,21,16,24,-6.00
2013,03,21,16,25,-6.00
2013,03,21,16,26,-6.00
2013,03,21,16,27,-6.00
2013,03,21,16,28,-6.00
2013,03,21,16,29,-6.00
2013,03,21,16,30,-6.00
2013,03,21,16,31,-6.00
2013,03,21,16,32,-6.00
2013,03,21,16,33,-6.00
2013,03,21,16,34,-6.50
2013,03,21,16,35,-6.50
2013,03,21,16,36,-6.50
2013,03,21,16,37,-6.50
2013,03,21,16,38,-6.50
2013,03,21,16,39,-6.50
2013,03,21,16,40,-6.50
2013,03,21,16,41,-6.50
2013,03,21,16,42,-6.50
2013,03,21,16,43,-6.50
2013,03,21,16,44,-6.50
2013,03,21,16,45,-6.50
2013,03,21,16,46,-6.50
2013,03,21,16,47,-6.50
2013,03,21,16,48,-6.50
2013,03,21,16,49,-6.80
2013,03,21,16,50,-6.80
2013,03,21,16,51,-6.80
2013,03,21,16,52,-6.80
2013,03,21,16,53,-6.80
2013,03,21,16,54,-6.80
2013,03,21,16,55,-6.80
2013,03,21,16,56,-6.80
2013,03,21,16,57,-6.80
2013,03,21,16,58,-6.80
2013,03,21,16,59,-6.80
2013,03,21,17,00,-6.80
2013,03,21,17,01,-6.80
2013,03,21,17,02,-6.80
2013,03,21,17,03,-6.80
2013,03,21,17,04,-6.90
2013,03,21,17,05,-6.90
2013,03,21,17,06,-6.90
2013,03,21,17,07,-6.90
2013,03,21,17,08,-6.90
2013,03,21,17,09,-6.90
2013,03,21,17,10,-6.90
2013,03,21,17,11,-6.90
2013,03,21,17,12,-6.90
2013,03,21,17,13,-6.90
2013,03,21,17,14,-6.90
2013,03,21,17,15,-6.90
2013,03,21,17,16,-6.90
2013,03,21,17,17,-6.90
2013,03,21,17,18,-6.90
2013,03,21,17,19,-7.10
2013,03,21,17,20,-7.10